Lawrence, MA

3:47 AM EDT on August 30, 2016 (GMT -0400)
Lawrence Municipal

Weather History for KLWM - January, 2013

Change the Weather History Date:

Tuesday, January 15, 2013

  Actual Average Record
Temperature  
Mean Temperature 38 °F -  
Max Temperature 42 °F 32 °F 65 °F (1937)
Min Temperature 33 °F 12 °F -15 °F (1957)
Degree Days  
Heating Degree Days 28    
Moisture  
Dew Point 22 °F    
Average Humidity 54    
Maximum Humidity 64    
Minimum Humidity 45    
Precipitation  
Precipitation 0.00 in - - ()
Sea Level Pressure  
Sea Level Pressure 30.28 in    
Wind  
Wind Speed 4 mph (NNW)    
Max Wind Speed 7 mph    
Max Gust Speed -    
Visibility 10 miles    
Events      
Averages and records for this station are not official NWS values.
T = Trace of Precipitation, MM = Missing Value Source: NWS Daily Summary

Daily Weather History Graph

Daily Weather History Graph

Search for Another Location

Airport or City:

Trip Planner

Search our weather history database for the weather conditions in past years. The results will help you decide how hot, cold, wet, or windy it might be!

Date:

Astronomy

Jan. 15, 2013 Rise Set
Actual Time 7:12 AM EST 4:36 PM EST
Civil Twilight 6:40 AM EST 5:07 PM EST
Nautical Twilight 6:05 AM EST 5:42 PM EST
Astronomical Twilight 5:32 AM EST 6:16 PM EST
Moon 9:09 AM EST (1/15) 9:30 PM EST (1/15)
Length of Visible Light 10h 26m
Length of Day
9h 24m
Waxing Crescent, 19% of the Moon is Illuminated
Jan 15
Waxing Crescent
Jan 18
First Quarter
Jan 26
Full
Feb 3
Last Quarter
Feb 10
New

Hourly Weather History & Observations

Time (EST) Temp. Windchill Dew Point Humidity Pressure Visibility Wind Dir Wind Speed Gust Speed Precip Events Conditions
12:54 AM 41.0 °F 38.0 °F 24.1 °F 51% 30.28 in 10.0 mi WNW 4.6 mph - N/A   Scattered Clouds
1:54 AM 39.9 °F 35.1 °F 23.0 °F 51% 30.29 in 10.0 mi NNW 6.9 mph - N/A   Scattered Clouds
2:54 AM 39.9 °F 37.8 °F 23.0 °F 51% 30.27 in 10.0 mi NNW 3.5 mph - N/A   Mostly Cloudy
3:54 AM 39.2 °F 35.0 °F 23.0 °F 52% 30.26 in 10.0 mi NNW 5.8 mph - N/A   Overcast
4:54 AM 37.9 °F 35.5 °F 23.0 °F 55% 30.24 in 10.0 mi NNW 3.5 mph - N/A   Mostly Cloudy
5:54 AM 35.1 °F 32.2 °F 21.9 °F 59% 30.25 in 10.0 mi North 3.5 mph - N/A   Clear
6:54 AM 35.6 °F 32.8 °F 23.0 °F 60% 30.29 in 10.0 mi NNW 3.5 mph - N/A   Clear
7:54 AM 34.0 °F 31.0 °F 23.0 °F 64% 30.32 in 10.0 mi NNW 3.5 mph - N/A   Clear
8:54 AM 35.1 °F - 24.1 °F 64% 30.32 in 10.0 mi Calm Calm - N/A   Mostly Cloudy
9:54 AM 37.9 °F 33.5 °F 24.1 °F 57% 30.33 in 10.0 mi NNW 5.8 mph - N/A   Overcast
10:54 AM 39.9 °F 35.8 °F 23.0 °F 51% 30.32 in 10.0 mi NNW 5.8 mph - N/A   Overcast
11:54 AM 42.1 °F 39.2 °F 23.0 °F 47% 30.28 in 10.0 mi Variable 4.6 mph - N/A   Overcast
12:54 PM 42.1 °F - 23.0 °F 47% 30.27 in 10.0 mi Calm Calm - N/A   Overcast
1:54 PM 42.1 °F 40.2 °F 23.0 °F 47% 30.28 in 10.0 mi West 3.5 mph - N/A   Overcast
2:54 PM 42.1 °F 38.4 °F 21.9 °F 45% 30.27 in 10.0 mi North 5.8 mph - N/A   Clear
3:54 PM 39.9 °F 36.7 °F 21.9 °F 49% 30.26 in 10.0 mi North 4.6 mph - N/A   Clear
4:54 PM 39.0 °F 35.7 °F 21.0 °F 49% 30.28 in 10.0 mi North 4.6 mph - N/A   Clear
5:54 PM 37.0 °F 34.5 °F 21.0 °F 52% 30.29 in 10.0 mi North 3.5 mph - N/A   Clear
6:54 PM 36.0 °F 32.1 °F 21.0 °F 55% 30.30 in 10.0 mi NNW 4.6 mph - N/A   Clear
7:54 PM 34.0 °F 31.0 °F 21.0 °F 59% 30.29 in 10.0 mi North 3.5 mph - N/A   Clear
8:54 PM 34.0 °F - 21.0 °F 59% 30.28 in 10.0 mi Calm Calm - N/A   Clear
9:54 PM 33.1 °F - 21.9 °F 64% 30.28 in 10.0 mi Calm Calm - N/A   Clear
10:54 PM 34.0 °F - 21.0 °F 59% 30.27 in 10.0 mi Calm Calm - N/A   Clear
11:54 PM 34.0 °F - 21.0 °F 59% 30.26 in 10.0 mi Calm Calm - N/A   Partly Cloudy